Terminal Aerodrome Forecast
Issued by NWS

Current Version | Previous Version | Graphics & Text | Print | Product List | Glossary On
Versions: 1 2 3 4 5 6 7 8 9 10 11 12
000
FTUS41 KRNK 200520
TAFLWB
TAF
KLWB 200520Z 2006/2106 VRB03KT P6SM BKN250
     FM201500 12006KT P6SM SCT250
     FM202300 13004KT P6SM SCT250=

USA.gov is the U.S. government's official web portal to all federal, state and local government web resources and services.